Regional Weather Roundup
Issued by NWS

Home | Current Version | Previous Version | Graphics & Text | Print | Product List | Glossary On
Versions: 1 2 3 4 5 6 7 8 9 10 11 12 13 14 15 16 17 18 19 20 21 22 23 24 25 26 27 28 29 30 31 32 33 34 35 36 37 38 39 40 41 42 43 44 45 46 47 48 49 50
000
ASUS43 KLMK 290702
RWRKY
KENTUCKY REGIONAL WEATHER ROUNDUP
NATIONAL WEATHER SERVICE LOUISVILLE KY
300 AM EDT THU SEP 29 2016

NOTE "FAIR" INDICATES FEW OR NO CLOUDS BELOW 12,000 FEET
WITH NO SIGNIFICANT WEATHER AND/OR OBSTRUCTIONS TO VISIBILITY.

KYZ001>023-026-027-061>063-070>075-290800-
WESTERN AND SOUTH CENTRAL KENTUCKY

CITY           SKY/WX    TMP DP  RH WIND       PRES   REMARKS
PADUCAH        CLEAR     51  46  83 W5        30.06F
HENDERSON      PTCLDY    52  45  76 W6        30.03S
OWENSBORO      NOT AVBL
HOPKINSVILLE   CLEAR     52  45  79 W5        30.05S
BOWLING GREEN  PTCLDY    51  47  86 W5        30.03S
GLASGOW        NOT AVBL
$$

KYZ024-025-028>034-038-045-046-053-290800-
NORTH CENTRAL KENTUCKY

CITY           SKY/WX    TMP DP  RH WIND       PRES   REMARKS
LOUISVILLE/SDF MOCLDY    55  49  80 W5        29.99S
LOUISVILLE/LOU CLOUDY    54  49  83 CALM      30.00S
FORT KNOX      PTCLDY    48  46  93 W3        29.98S
$$

KYZ035>037-039>044-047>052-055>060-089>105-290800-
NORTHEAST KENTUCKY

CITY           SKY/WX    TMP DP  RH WIND       PRES   REMARKS
LEXINGTON      CLEAR     51  49  92 S5        29.98S FOG
COVINGTON      FOG       51  51 100 W6        29.96S VSB 1/2
FRANKFORT      CLOUDY    53  49  86 W6        29.97S
$$

KYZ054-064>069-076>088-106>120-290800-
SOUTHEAST KENTUCKY

CITY           SKY/WX    TMP DP  RH WIND       PRES   REMARKS
JACKSON        CLOUDY    57  55  93 CALM      29.98S FOG
LONDON         MOCLDY    55  52  89 W6        29.99S
SOMERSET       PTCLDY    52  52 100 CALM      30.01S
MIDDLESBORO    LGT RAIN  59  58  99 CALM      29.99F
MONTICELLO     FOG       55  54  96 N8        30.02S VSB 1/2
$$




USA.gov is the U.S. government's official web portal to all federal, state and local government web resources and services.